Year,Month,Day,Hour,Minute,Value (Times are PST for temperature in C)
2014,08,13,00,00,17.40
2014,08,13,00,01,17.40
2014,08,13,00,02,17.30
2014,08,13,00,03,17.30
2014,08,13,00,04,17.30
2014,08,13,00,05,17.20
2014,08,13,00,06,17.20
2014,08,13,00,07,17.20
2014,08,13,00,08,17.20
2014,08,13,00,09,17.20
2014,08,13,00,10,17.20
2014,08,13,00,11,17.20
2014,08,13,00,12,17.20
2014,08,13,00,13,17.20
2014,08,13,00,14,17.20
2014,08,13,00,15,17.20
2014,08,13,00,16,17.20
2014,08,13,00,17,17.30
2014,08,13,00,18,17.30
2014,08,13,00,19,17.30
2014,08,13,00,20,17.30
2014,08,13,00,21,17.30
2014,08,13,00,22,17.30
2014,08,13,00,23,17.40
2014,08,13,00,24,17.40
2014,08,13,00,25,17.40
2014,08,13,00,26,17.50
2014,08,13,00,27,17.50
2014,08,13,00,28,17.60
2014,08,13,00,29,17.60
2014,08,13,00,30,17.60
2014,08,13,00,31,17.70
2014,08,13,00,32,17.70
2014,08,13,00,33,17.80
2014,08,13,00,34,17.80
2014,08,13,00,35,17.90
2014,08,13,00,36,17.90
2014,08,13,00,37,17.90
2014,08,13,00,38,18.00
2014,08,13,00,39,18.00
2014,08,13,00,40,18.10
2014,08,13,00,41,18.10
2014,08,13,00,42,18.20
2014,08,13,00,43,18.20
2014,08,13,00,44,18.30
2014,08,13,00,45,18.30
2014,08,13,00,46,18.30
2014,08,13,00,47,18.40
2014,08,13,00,48,18.40
2014,08,13,00,49,18.50
2014,08,13,00,50,18.50
2014,08,13,00,51,18.60
2014,08,13,00,52,18.50
2014,08,13,00,53,18.40
2014,08,13,00,54,18.20
2014,08,13,00,55,18.10
2014,08,13,00,56,17.90
2014,08,13,00,57,17.60
2014,08,13,00,58,17.30
2014,08,13,00,59,17.10
2014,08,13,01,00,16.90
2014,08,13,01,01,16.70
2014,08,13,01,02,16.50
2014,08,13,01,03,16.30
2014,08,13,01,04,16.10
2014,08,13,01,05,15.90
2014,08,13,01,06,15.70
2014,08,13,01,07,15.50
2014,08,13,01,08,15.30
2014,08,13,01,09,15.10
2014,08,13,01,10,14.90
2014,08,13,01,11,14.80
2014,08,13,01,12,14.60
2014,08,13,01,13,14.50
2014,08,13,01,14,14.40
2014,08,13,01,15,14.30
2014,08,13,01,16,14.20
2014,08,13,01,17,14.20
2014,08,13,01,18,14.10
2014,08,13,01,19,14.10
2014,08,13,01,20,14.00
2014,08,13,01,21,14.00
2014,08,13,01,22,14.00
2014,08,13,01,23,13.90
2014,08,13,01,24,13.90
2014,08,13,01,25,13.90
2014,08,13,01,26,13.90
2014,08,13,01,27,13.90
2014,08,13,01,28,13.90
2014,08,13,01,29,13.80
2014,08,13,01,30,13.80
2014,08,13,01,31,13.80
2014,08,13,01,32,13.80
2014,08,13,01,33,13.70
2014,08,13,01,34,13.70
2014,08,13,01,35,13.70
2014,08,13,01,36,13.70
2014,08,13,01,37,13.70
2014,08,13,01,38,13.70
2014,08,13,01,39,13.60
2014,08,13,01,40,13.60
2014,08,13,01,41,13.60
2014,08,13,01,42,13.60
2014,08,13,01,43,13.60
2014,08,13,01,44,13.60
2014,08,13,01,45,13.60
2014,08,13,01,46,13.60
2014,08,13,01,47,13.60
2014,08,13,01,48,13.60
2014,08,13,01,49,13.60
2014,08,13,01,50,13.60
2014,08,13,01,51,13.60
2014,08,13,01,52,13.60
2014,08,13,01,53,13.50
2014,08,13,01,54,13.50
2014,08,13,01,55,13.50
2014,08,13,01,56,13.50
2014,08,13,01,57,13.50
2014,08,13,01,58,13.50
2014,08,13,01,59,13.50
2014,08,13,02,00,13.50
2014,08,13,02,01,13.50
2014,08,13,02,02,13.60
2014,08,13,02,03,13.60
2014,08,13,02,04,13.60
2014,08,13,02,05,13.60
2014,08,13,02,06,13.60
2014,08,13,02,07,13.60
2014,08,13,02,08,13.60
2014,08,13,02,09,13.60
2014,08,13,02,10,13.50
2014,08,13,02,11,13.50
2014,08,13,02,12,13.50
2014,08,13,02,13,13.40
2014,08,13,02,14,13.40
2014,08,13,02,15,13.30
2014,08,13,02,16,13.30
2014,08,13,02,17,13.30
2014,08,13,02,18,13.30
2014,08,13,02,19,13.30
2014,08,13,02,20,13.30
2014,08,13,02,21,13.30
2014,08,13,02,22,13.30
2014,08,13,02,23,13.30
2014,08,13,02,24,13.20
2014,08,13,02,25,13.20
2014,08,13,02,26,13.30
2014,08,13,02,27,13.30
2014,08,13,02,28,13.30
2014,08,13,02,29,13.30
2014,08,13,02,30,13.30
2014,08,13,02,31,13.30
2014,08,13,02,32,13.30
2014,08,13,02,33,13.30
2014,08,13,02,34,13.30
2014,08,13,02,35,13.40
2014,08,13,02,36,13.40
2014,08,13,02,37,13.40
2014,08,13,02,38,13.50
2014,08,13,02,39,13.60
2014,08,13,02,40,13.60
2014,08,13,02,41,13.70
2014,08,13,02,42,13.70
2014,08,13,02,43,13.70
2014,08,13,02,44,13.80
2014,08,13,02,45,13.80
2014,08,13,02,46,13.80
2014,08,13,02,47,13.80
2014,08,13,02,48,13.90
2014,08,13,02,49,13.90
2014,08,13,02,50,13.90
2014,08,13,02,51,13.90
2014,08,13,02,52,13.90
2014,08,13,02,53,14.00
2014,08,13,02,54,14.00
2014,08,13,02,55,14.10
2014,08,13,02,56,14.10
2014,08,13,02,57,14.10
2014,08,13,02,58,14.10
2014,08,13,02,59,14.10
2014,08,13,03,00,14.10
2014,08,13,03,01,14.20
2014,08,13,03,02,14.20
2014,08,13,03,03,14.20
2014,08,13,03,04,14.20
2014,08,13,03,05,14.20
2014,08,13,03,06,14.20
2014,08,13,03,07,14.20
2014,08,13,03,08,14.20
2014,08,13,03,09,14.20
2014,08,13,03,10,14.20
2014,08,13,03,11,14.10
2014,08,13,03,12,14.10
2014,08,13,03,13,14.10
2014,08,13,03,14,14.10
2014,08,13,03,15,14.10
2014,08,13,03,16,14.10
2014,08,13,03,17,14.00
2014,08,13,03,18,14.00
2014,08,13,03,19,14.00
2014,08,13,03,20,14.00
2014,08,13,03,21,13.90
2014,08,13,03,22,13.90
2014,08,13,03,23,13.90
2014,08,13,03,24,13.90
2014,08,13,03,25,13.90
2014,08,13,03,26,13.90
2014,08,13,03,27,13.90
2014,08,13,03,28,13.90
2014,08,13,03,29,13.90
2014,08,13,03,30,13.90
2014,08,13,03,31,13.90
2014,08,13,03,32,13.90
2014,08,13,03,33,13.90
2014,08,13,03,34,13.90
2014,08,13,03,35,13.90
2014,08,13,03,36,13.90
2014,08,13,03,37,13.90
2014,08,13,03,38,13.90
2014,08,13,03,39,13.90
2014,08,13,03,40,13.90
2014,08,13,03,41,13.90
2014,08,13,03,42,13.90
2014,08,13,03,43,13.90
2014,08,13,03,44,13.90
2014,08,13,03,45,13.90
2014,08,13,03,46,13.90
2014,08,13,03,47,13.90
2014,08,13,03,48,13.90
2014,08,13,03,49,13.90
2014,08,13,03,50,13.90
2014,08,13,03,51,13.90
2014,08,13,03,52,13.90
2014,08,13,03,53,13.90
2014,08,13,03,54,13.90
2014,08,13,03,55,13.80
2014,08,13,03,56,13.90
2014,08,13,03,57,13.80
2014,08,13,03,58,13.80
2014,08,13,03,59,13.90
2014,08,13,04,00,13.80
2014,08,13,04,01,13.90
2014,08,13,04,02,13.90
2014,08,13,04,03,13.90
2014,08,13,04,04,13.90
2014,08,13,04,05,13.90
2014,08,13,04,06,13.90
2014,08,13,04,07,13.90
2014,08,13,04,08,13.90
2014,08,13,04,09,13.90
2014,08,13,04,10,13.90
2014,08,13,04,11,13.90
2014,08,13,04,12,14.00
2014,08,13,04,13,14.00
2014,08,13,04,14,14.00
2014,08,13,04,15,14.10
2014,08,13,04,16,14.10
2014,08,13,04,17,14.10
2014,08,13,04,18,14.10
2014,08,13,04,19,14.10
2014,08,13,04,20,14.20
2014,08,13,04,21,14.20
2014,08,13,04,22,14.20
2014,08,13,04,23,14.20
2014,08,13,04,24,14.20
2014,08,13,04,25,14.20
2014,08,13,04,26,14.20
2014,08,13,04,27,14.30
2014,08,13,04,28,14.30
2014,08,13,04,29,14.30
2014,08,13,04,30,14.30
2014,08,13,04,31,14.30
2014,08,13,04,32,14.30
2014,08,13,04,33,14.40
2014,08,13,04,34,14.40
2014,08,13,04,35,14.40
2014,08,13,04,36,14.40
2014,08,13,04,37,14.50
2014,08,13,04,38,14.50
2014,08,13,04,39,14.50
2014,08,13,04,40,14.60
2014,08,13,04,41,14.60
2014,08,13,04,42,14.60
2014,08,13,04,43,14.70
2014,08,13,04,44,14.70
2014,08,13,04,45,14.70
2014,08,13,04,46,14.70
2014,08,13,04,47,14.80
2014,08,13,04,48,14.80
2014,08,13,04,49,14.80
2014,08,13,04,50,14.80
2014,08,13,04,51,14.90
2014,08,13,04,52,14.90
2014,08,13,04,53,14.90
2014,08,13,04,54,15.00
2014,08,13,04,55,15.10
2014,08,13,04,56,15.10
2014,08,13,04,57,15.10
2014,08,13,04,58,15.10
2014,08,13,04,59,15.20
2014,08,13,05,00,15.20
2014,08,13,05,01,15.20
2014,08,13,05,02,15.30
2014,08,13,05,03,15.30
2014,08,13,05,04,15.30
2014,08,13,05,05,15.30
2014,08,13,05,06,15.40
2014,08,13,05,07,15.40
2014,08,13,05,08,15.40
2014,08,13,05,09,15.50
2014,08,13,05,10,15.50
2014,08,13,05,11,15.50
2014,08,13,05,12,15.60
2014,08,13,05,13,15.60
2014,08,13,05,14,15.60
2014,08,13,05,15,15.60
2014,08,13,05,16,15.70
2014,08,13,05,17,15.70
2014,08,13,05,18,15.70
2014,08,13,05,19,15.70
2014,08,13,05,20,15.70
2014,08,13,05,21,15.70
2014,08,13,05,22,15.70
2014,08,13,05,23,15.70
2014,08,13,05,24,15.80
2014,08,13,05,25,15.80
2014,08,13,05,26,15.80
2014,08,13,05,27,15.80
2014,08,13,05,28,15.80
2014,08,13,05,29,15.80
2014,08,13,05,30,15.80
2014,08,13,05,31,15.80
2014,08,13,05,32,15.80
2014,08,13,05,33,15.80
2014,08,13,05,34,15.80
2014,08,13,05,35,15.80
2014,08,13,05,36,15.80
2014,08,13,05,37,15.80
2014,08,13,05,38,15.80
2014,08,13,05,39,15.80
2014,08,13,05,40,15.80
2014,08,13,05,41,15.80
2014,08,13,05,42,15.80
2014,08,13,05,43,15.80
2014,08,13,05,44,15.80
2014,08,13,05,45,15.80
2014,08,13,05,46,15.80
2014,08,13,05,47,15.80
2014,08,13,05,48,15.80
2014,08,13,05,49,15.90
2014,08,13,05,50,15.90
2014,08,13,05,51,15.90
2014,08,13,05,52,15.90
2014,08,13,05,53,15.90
2014,08,13,05,54,15.90
2014,08,13,05,55,15.90
2014,08,13,05,56,15.90
2014,08,13,05,57,15.90
2014,08,13,05,58,15.90
2014,08,13,05,59,15.90
2014,08,13,06,00,15.90
2014,08,13,06,01,15.90
2014,08,13,06,02,15.90
2014,08,13,06,03,15.90
2014,08,13,06,04,16.00
2014,08,13,06,05,16.00
2014,08,13,06,06,16.00
2014,08,13,06,07,16.00
2014,08,13,06,08,16.00
2014,08,13,06,09,16.10
2014,08,13,06,10,16.10
2014,08,13,06,11,16.10
2014,08,13,06,12,16.10
2014,08,13,06,13,16.10
2014,08,13,06,14,16.10
2014,08,13,06,15,16.20
2014,08,13,06,16,16.20
2014,08,13,06,17,16.20
2014,08,13,06,18,16.20
2014,08,13,06,19,16.20
2014,08,13,06,20,16.20
2014,08,13,06,21,16.20
2014,08,13,06,22,16.20
2014,08,13,06,23,16.20
2014,08,13,06,24,16.20
2014,08,13,06,25,16.20
2014,08,13,06,26,16.20
2014,08,13,06,27,16.30
2014,08,13,06,28,16.20
2014,08,13,06,29,16.30
2014,08,13,06,30,16.30
2014,08,13,06,31,16.30
2014,08,13,06,32,16.30
2014,08,13,06,33,16.30
2014,08,13,06,34,16.30
2014,08,13,06,35,16.30
2014,08,13,06,36,16.30
2014,08,13,06,37,16.20
2014,08,13,06,38,16.20
2014,08,13,06,39,16.20
2014,08,13,06,40,16.20
2014,08,13,06,41,16.20
2014,08,13,06,42,16.30
2014,08,13,06,43,16.20
2014,08,13,06,44,16.20
2014,08,13,06,45,16.30
2014,08,13,06,46,16.20
2014,08,13,06,47,16.20
2014,08,13,06,48,16.30
2014,08,13,06,49,16.30
2014,08,13,06,50,16.30
2014,08,13,06,51,16.30
2014,08,13,06,52,16.30
2014,08,13,06,53,16.30
2014,08,13,06,54,16.30
2014,08,13,06,55,16.30
2014,08,13,06,56,16.30
2014,08,13,06,57,16.30
2014,08,13,06,58,16.30
2014,08,13,06,59,16.30
2014,08,13,07,00,16.30
2014,08,13,07,01,16.30
2014,08,13,07,02,16.30
2014,08,13,07,03,16.30
2014,08,13,07,04,16.30
2014,08,13,07,05,16.30
2014,08,13,07,06,16.30
2014,08,13,07,07,16.30
2014,08,13,07,08,16.30
2014,08,13,07,09,16.30
2014,08,13,07,10,16.30
2014,08,13,07,11,16.30
2014,08,13,07,12,16.30
2014,08,13,07,13,16.30
2014,08,13,07,14,16.30
2014,08,13,07,15,16.30
2014,08,13,07,16,16.30
2014,08,13,07,17,16.30
2014,08,13,07,18,16.30
2014,08,13,07,19,16.30
2014,08,13,07,20,16.30
2014,08,13,07,21,16.30
2014,08,13,07,22,16.30
2014,08,13,07,23,16.30
2014,08,13,07,24,16.30
2014,08,13,07,25,16.30
2014,08,13,07,26,16.30
2014,08,13,07,27,16.30
2014,08,13,07,28,16.30
2014,08,13,07,29,16.30
2014,08,13,07,30,16.30
2014,08,13,07,31,16.30
2014,08,13,07,32,16.40
2014,08,13,07,33,16.40
2014,08,13,07,34,16.40
2014,08,13,07,35,16.40
2014,08,13,07,36,16.40
2014,08,13,07,37,16.40
2014,08,13,07,38,16.40
2014,08,13,07,39,16.40
2014,08,13,07,40,16.40
2014,08,13,07,41,16.40
2014,08,13,07,42,16.50
2014,08,13,07,43,16.50
2014,08,13,07,44,16.50
2014,08,13,07,45,16.40
2014,08,13,07,46,16.50
2014,08,13,07,47,16.50
2014,08,13,07,48,16.50
2014,08,13,07,49,16.50
2014,08,13,07,50,16.50
2014,08,13,07,51,16.50
2014,08,13,07,52,16.50
2014,08,13,07,53,16.50
2014,08,13,07,54,16.50
2014,08,13,07,55,16.50
2014,08,13,07,56,16.50
2014,08,13,07,57,16.50
2014,08,13,07,58,16.50
2014,08,13,07,59,16.60
2014,08,13,08,00,16.60
2014,08,13,08,01,16.50
2014,08,13,08,02,16.60
2014,08,13,08,03,16.60
2014,08,13,08,04,16.60
2014,08,13,08,05,16.60
2014,08,13,08,06,16.60
2014,08,13,08,07,16.60
2014,08,13,08,08,16.60
2014,08,13,08,09,16.60
2014,08,13,08,10,16.60
2014,08,13,08,11,16.60
2014,08,13,08,12,16.60
2014,08,13,08,13,16.60
2014,08,13,08,14,16.60
2014,08,13,08,15,16.50
2014,08,13,08,16,16.50
2014,08,13,08,17,16.40
2014,08,13,08,18,16.30
2014,08,13,08,19,16.30
2014,08,13,08,20,16.30
2014,08,13,08,21,16.20
2014,08,13,08,22,16.20
2014,08,13,08,23,16.20
2014,08,13,08,24,16.10
2014,08,13,08,25,16.10
2014,08,13,08,26,16.10
2014,08,13,08,27,16.10
2014,08,13,08,28,16.10
2014,08,13,08,29,16.10
2014,08,13,08,30,16.10
2014,08,13,08,31,16.10
2014,08,13,08,32,16.10
2014,08,13,08,33,16.10
2014,08,13,08,34,16.10
2014,08,13,08,35,16.10
2014,08,13,08,36,16.00
2014,08,13,08,37,16.00
2014,08,13,08,38,16.00
2014,08,13,08,39,15.90
2014,08,13,08,40,15.90
2014,08,13,08,41,15.90
2014,08,13,08,42,15.80
2014,08,13,08,43,15.80
2014,08,13,08,44,15.80
2014,08,13,08,45,15.80
2014,08,13,08,46,15.80
2014,08,13,08,47,15.80
2014,08,13,08,48,15.80
2014,08,13,08,49,15.70
2014,08,13,08,50,15.70
2014,08,13,08,51,15.70
2014,08,13,08,52,15.70
2014,08,13,08,53,15.70
2014,08,13,08,54,15.70
2014,08,13,08,55,15.70
2014,08,13,08,56,15.80
2014,08,13,08,57,15.70
2014,08,13,08,58,15.80
2014,08,13,08,59,15.80
2014,08,13,09,00,15.80
2014,08,13,09,01,15.80
2014,08,13,09,02,15.80
2014,08,13,09,03,15.80
2014,08,13,09,04,15.80
2014,08,13,09,05,15.80
2014,08,13,09,06,15.80
2014,08,13,09,07,15.80
2014,08,13,09,08,15.90
2014,08,13,09,09,15.90
2014,08,13,09,10,15.90
2014,08,13,09,11,15.90
2014,08,13,09,12,15.90
2014,08,13,09,13,15.90
2014,08,13,09,14,16.00
2014,08,13,09,15,16.00
2014,08,13,09,16,16.10
2014,08,13,09,17,16.10
2014,08,13,09,18,16.10
2014,08,13,09,19,16.10
2014,08,13,09,20,16.20
2014,08,13,09,21,16.20
2014,08,13,09,22,16.20
2014,08,13,09,23,16.20
2014,08,13,09,24,16.30
2014,08,13,09,25,16.30
2014,08,13,09,26,16.30
2014,08,13,09,27,16.30
2014,08,13,09,28,16.30
2014,08,13,09,29,16.30
2014,08,13,09,30,16.40
2014,08,13,09,31,16.40
2014,08,13,09,32,16.40
2014,08,13,09,33,16.40
2014,08,13,09,34,16.50
2014,08,13,09,35,16.50
2014,08,13,09,36,16.50
2014,08,13,09,37,16.50
2014,08,13,09,38,16.60
2014,08,13,09,39,16.60
2014,08,13,09,40,16.60
2014,08,13,09,41,16.60
2014,08,13,09,42,16.60
2014,08,13,09,43,16.60
2014,08,13,09,44,16.70
2014,08,13,09,45,16.70
2014,08,13,09,46,16.70
2014,08,13,09,47,16.70
2014,08,13,09,48,16.70
2014,08,13,09,49,16.70
2014,08,13,09,50,16.70
2014,08,13,09,51,16.80
2014,08,13,09,52,16.80
2014,08,13,09,53,16.80
2014,08,13,09,54,16.80
2014,08,13,09,55,16.80
2014,08,13,09,56,16.80
2014,08,13,09,57,16.80
2014,08,13,09,58,16.90
2014,08,13,09,59,16.90
2014,08,13,10,00,16.80
2014,08,13,10,01,16.70
2014,08,13,10,02,16.40
2014,08,13,10,03,16.20
2014,08,13,10,04,16.00
2014,08,13,10,05,15.70
2014,08,13,10,06,15.50
2014,08,13,10,07,15.40
2014,08,13,10,08,15.30
2014,08,13,10,09,15.00
2014,08,13,10,10,14.90
2014,08,13,10,11,14.80
2014,08,13,10,12,14.70
2014,08,13,10,13,14.60
2014,08,13,10,14,14.50
2014,08,13,10,15,14.40
2014,08,13,10,16,14.30
2014,08,13,10,17,14.20
2014,08,13,10,18,14.20
2014,08,13,10,19,14.10
2014,08,13,10,20,14.10
2014,08,13,10,21,14.10
2014,08,13,10,22,14.10
2014,08,13,10,23,14.10
2014,08,13,10,24,14.10
2014,08,13,10,25,14.10
2014,08,13,10,26,14.10
2014,08,13,10,27,14.10
2014,08,13,10,28,14.10
2014,08,13,10,29,14.00
2014,08,13,10,30,14.00
2014,08,13,10,31,14.00
2014,08,13,10,32,14.00
2014,08,13,10,33,14.00
2014,08,13,10,34,14.00
2014,08,13,10,35,13.90
2014,08,13,10,36,13.90
2014,08,13,10,37,13.90
2014,08,13,10,38,13.90
2014,08,13,10,39,14.00
2014,08,13,10,40,14.00
2014,08,13,10,41,14.00
2014,08,13,10,42,14.00
2014,08,13,10,43,14.00
2014,08,13,10,44,14.00
2014,08,13,10,45,14.10
2014,08,13,10,46,14.10
2014,08,13,10,47,14.10
2014,08,13,10,48,14.10
2014,08,13,10,49,14.10
2014,08,13,10,50,14.10
2014,08,13,10,51,14.10
2014,08,13,10,52,14.10
2014,08,13,10,53,14.10
2014,08,13,10,54,14.10
2014,08,13,10,55,14.10
2014,08,13,10,56,14.00
2014,08,13,10,57,14.10
2014,08,13,10,58,14.10
2014,08,13,10,59,14.10
2014,08,13,11,00,14.10
2014,08,13,11,01,14.10
2014,08,13,11,02,14.10
2014,08,13,11,03,14.10
2014,08,13,11,04,14.10
2014,08,13,11,05,14.10
2014,08,13,11,06,14.10
2014,08,13,11,07,14.10
2014,08,13,11,08,14.00
2014,08,13,11,09,14.00
2014,08,13,11,10,14.00
2014,08,13,11,11,14.00
2014,08,13,11,12,14.00
2014,08,13,11,13,14.00
2014,08,13,11,14,14.00
2014,08,13,11,15,14.00
2014,08,13,11,16,14.00
2014,08,13,11,17,14.00
2014,08,13,11,18,14.00
2014,08,13,11,19,14.00
2014,08,13,11,20,14.00
2014,08,13,11,21,14.00
2014,08,13,11,22,14.00
2014,08,13,11,23,14.00
2014,08,13,11,24,14.00
2014,08,13,11,25,14.00
2014,08,13,11,26,14.00
2014,08,13,11,27,14.10
2014,08,13,11,28,14.10
2014,08,13,11,29,14.10
2014,08,13,11,30,14.10
2014,08,13,11,31,14.10
2014,08,13,11,32,14.10
2014,08,13,11,33,14.10
2014,08,13,11,34,14.10
2014,08,13,11,35,14.20
2014,08,13,11,36,14.10
2014,08,13,11,37,14.20
2014,08,13,11,38,14.20
2014,08,13,11,39,14.20
2014,08,13,11,40,14.20
2014,08,13,11,41,14.20
2014,08,13,11,42,14.20
2014,08,13,11,43,14.20
2014,08,13,11,44,14.20
2014,08,13,11,45,14.20
2014,08,13,11,46,14.20
2014,08,13,11,47,14.20
2014,08,13,11,48,14.20
2014,08,13,11,49,14.20
2014,08,13,11,50,14.20
2014,08,13,11,51,14.20
2014,08,13,11,52,14.20
2014,08,13,11,53,14.20
2014,08,13,11,54,14.30
2014,08,13,11,55,14.30
2014,08,13,11,56,14.30
2014,08,13,11,57,14.30
2014,08,13,11,58,14.30
2014,08,13,11,59,14.30
2014,08,13,12,00,14.30
2014,08,13,12,01,14.30
2014,08,13,12,02,14.40
2014,08,13,12,03,14.40
2014,08,13,12,04,14.40
2014,08,13,12,05,14.40
2014,08,13,12,06,14.40
2014,08,13,12,07,14.40
2014,08,13,12,08,14.40
2014,08,13,12,09,14.50
2014,08,13,12,10,14.50
2014,08,13,12,11,14.50
2014,08,13,12,12,14.40
2014,08,13,12,13,14.40
2014,08,13,12,14,14.40
2014,08,13,12,15,14.40
2014,08,13,12,16,14.50
2014,08,13,12,17,14.50
2014,08,13,12,18,14.50
2014,08,13,12,19,14.50
2014,08,13,12,20,14.50
2014,08,13,12,21,14.50
2014,08,13,12,22,14.50
2014,08,13,12,23,14.50
2014,08,13,12,24,14.50
2014,08,13,12,25,14.60
2014,08,13,12,26,14.60
2014,08,13,12,27,14.60
2014,08,13,12,28,14.60
2014,08,13,12,29,14.50
2014,08,13,12,30,14.50
2014,08,13,12,31,14.50
2014,08,13,12,32,14.50
2014,08,13,12,33,14.50
2014,08,13,12,34,14.50
2014,08,13,12,35,14.50
2014,08,13,12,36,14.60
2014,08,13,12,37,14.50
2014,08,13,12,38,14.50
2014,08,13,12,39,14.50
2014,08,13,12,40,14.50
2014,08,13,12,41,14.40
2014,08,13,12,42,14.40
2014,08,13,12,43,14.40
2014,08,13,12,44,14.40
2014,08,13,12,45,14.40
2014,08,13,12,46,14.40
2014,08,13,12,47,14.40
2014,08,13,12,48,14.40
2014,08,13,12,49,14.40
2014,08,13,12,50,14.40
2014,08,13,12,51,14.40
2014,08,13,12,52,14.40
2014,08,13,12,53,14.40
2014,08,13,12,54,14.40
2014,08,13,12,55,14.50
2014,08,13,12,56,14.50
2014,08,13,12,57,14.50
2014,08,13,12,58,14.60
2014,08,13,12,59,14.60
2014,08,13,13,00,14.60
2014,08,13,13,01,14.60
2014,08,13,13,02,14.60
2014,08,13,13,03,14.70
2014,08,13,13,04,14.70
2014,08,13,13,05,14.70
2014,08,13,13,06,14.70
2014,08,13,13,07,14.80
2014,08,13,13,08,14.80
2014,08,13,13,09,14.80
2014,08,13,13,10,14.90
2014,08,13,13,11,14.90
2014,08,13,13,12,14.90
2014,08,13,13,13,14.90
2014,08,13,13,14,15.00
2014,08,13,13,15,15.00
2014,08,13,13,16,15.10
2014,08,13,13,17,15.10
2014,08,13,13,18,15.10
2014,08,13,13,19,15.10
2014,08,13,13,20,15.10
2014,08,13,13,21,15.20
2014,08,13,13,22,15.20
2014,08,13,13,23,15.20
2014,08,13,13,24,15.20
2014,08,13,13,25,15.30
2014,08,13,13,26,15.30
2014,08,13,13,27,15.30
2014,08,13,13,28,15.30
2014,08,13,13,29,15.30
2014,08,13,13,30,15.30
2014,08,13,13,31,15.30
2014,08,13,13,32,15.40
2014,08,13,13,33,15.40
2014,08,13,13,34,15.40
2014,08,13,13,35,15.40
2014,08,13,13,36,15.50
2014,08,13,13,37,15.50
2014,08,13,13,38,15.50
2014,08,13,13,39,15.50
2014,08,13,13,40,15.60
2014,08,13,13,41,15.60
2014,08,13,13,42,15.60
2014,08,13,13,43,15.60
2014,08,13,13,44,15.70
2014,08,13,13,45,15.70
2014,08,13,13,46,15.70
2014,08,13,13,47,15.70
2014,08,13,13,48,15.70
2014,08,13,13,49,15.70
2014,08,13,13,50,15.70
2014,08,13,13,51,15.70
2014,08,13,13,52,15.70
2014,08,13,13,53,15.70
2014,08,13,13,54,15.70
2014,08,13,13,55,15.70
2014,08,13,13,56,15.70
2014,08,13,13,57,15.70
2014,08,13,13,58,15.70
2014,08,13,13,59,15.70
2014,08,13,14,00,15.70
2014,08,13,14,01,15.70
2014,08,13,14,02,15.70
2014,08,13,14,03,15.70
2014,08,13,14,04,15.70
2014,08,13,14,05,15.80
2014,08,13,14,06,15.80
2014,08,13,14,07,15.80
2014,08,13,14,08,15.80
2014,08,13,14,09,15.80
2014,08,13,14,10,15.80
2014,08,13,14,11,15.80
2014,08,13,14,12,15.80
2014,08,13,14,13,15.80
2014,08,13,14,14,15.80
2014,08,13,14,15,15.80
2014,08,13,14,16,15.80
2014,08,13,14,17,15.80
2014,08,13,14,18,15.80
2014,08,13,14,19,15.80
2014,08,13,14,20,15.80
2014,08,13,14,21,15.80
2014,08,13,14,22,15.80
2014,08,13,14,23,15.80
2014,08,13,14,24,15.80
2014,08,13,14,25,15.80
2014,08,13,14,26,15.80
2014,08,13,14,27,15.80
2014,08,13,14,28,15.80
2014,08,13,14,29,15.70
2014,08,13,14,30,15.70
2014,08,13,14,31,15.80
2014,08,13,14,32,15.70
2014,08,13,14,33,15.70
2014,08,13,14,34,15.70
2014,08,13,14,35,15.70
2014,08,13,14,36,15.70
2014,08,13,14,37,15.70
2014,08,13,14,38,15.70
2014,08,13,14,39,15.70
2014,08,13,14,40,15.70
2014,08,13,14,41,15.70
2014,08,13,14,42,15.70
2014,08,13,14,43,15.70
2014,08,13,14,44,15.70
2014,08,13,14,45,15.70
2014,08,13,14,46,15.70
2014,08,13,14,47,15.70
2014,08,13,14,48,15.70
2014,08,13,14,49,15.70
2014,08,13,14,50,15.70
2014,08,13,14,51,15.70
2014,08,13,14,52,15.70
2014,08,13,14,53,15.70
2014,08,13,14,54,15.80
2014,08,13,14,55,15.80
2014,08,13,14,56,15.80
2014,08,13,14,57,15.80
2014,08,13,14,58,15.80
2014,08,13,14,59,15.80
2014,08,13,15,00,15.80
2014,08,13,15,01,15.80
2014,08,13,15,02,15.80
2014,08,13,15,03,15.80
2014,08,13,15,04,15.80
2014,08,13,15,05,15.80
2014,08,13,15,06,15.80
2014,08,13,15,07,15.80
2014,08,13,15,08,15.80
2014,08,13,15,09,15.80
2014,08,13,15,10,15.80
2014,08,13,15,11,15.80
2014,08,13,15,12,15.80
2014,08,13,15,13,15.80
2014,08,13,15,14,15.80
2014,08,13,15,15,15.80
2014,08,13,15,16,15.80
2014,08,13,15,17,15.80
2014,08,13,15,18,15.80
2014,08,13,15,19,15.80
2014,08,13,15,20,15.80
2014,08,13,15,21,15.80
2014,08,13,15,22,15.80
2014,08,13,15,23,15.80
2014,08,13,15,24,15.80
2014,08,13,15,25,15.80
2014,08,13,15,26,15.80
2014,08,13,15,27,15.80
2014,08,13,15,28,15.80
2014,08,13,15,29,15.80
2014,08,13,15,30,15.80
2014,08,13,15,31,15.80
2014,08,13,15,32,15.80
2014,08,13,15,33,15.80
2014,08,13,15,34,15.80
2014,08,13,15,35,15.80
2014,08,13,15,36,15.80
2014,08,13,15,37,15.80
2014,08,13,15,38,15.80
2014,08,13,15,39,15.80
2014,08,13,15,40,15.80
2014,08,13,15,41,15.80
2014,08,13,15,42,15.80
2014,08,13,15,43,15.80
2014,08,13,15,44,15.80
2014,08,13,15,45,15.80
2014,08,13,15,46,15.80
2014,08,13,15,47,15.70
2014,08,13,15,48,15.70
2014,08,13,15,49,15.70
2014,08,13,15,50,15.70
2014,08,13,15,51,15.60
2014,08,13,15,52,15.60
2014,08,13,15,53,15.50
2014,08,13,15,54,15.50
2014,08,13,15,55,15.50
2014,08,13,15,56,15.40
2014,08,13,15,57,15.40
2014,08,13,15,58,15.40
2014,08,13,15,59,15.30
2014,08,13,16,00,15.30
2014,08,13,16,01,15.30
2014,08,13,16,02,15.30
2014,08,13,16,03,15.30
2014,08,13,16,04,15.30
2014,08,13,16,05,15.30
2014,08,13,16,06,15.30
2014,08,13,16,07,15.30
2014,08,13,16,08,15.30
2014,08,13,16,09,15.30
2014,08,13,16,10,15.30
2014,08,13,16,11,15.30
2014,08,13,16,12,15.30
2014,08,13,16,13,15.40
2014,08,13,16,14,15.40
2014,08,13,16,15,15.40
2014,08,13,16,16,15.40
2014,08,13,16,17,15.40
2014,08,13,16,18,15.40
2014,08,13,16,19,15.50
2014,08,13,16,20,15.50
2014,08,13,16,21,15.50
2014,08,13,16,22,15.50
2014,08,13,16,23,15.50
2014,08,13,16,24,15.60
2014,08,13,16,25,15.60
2014,08,13,16,26,15.60
2014,08,13,16,27,15.60
2014,08,13,16,28,15.60
2014,08,13,16,29,15.70
2014,08,13,16,30,15.70
2014,08,13,16,31,15.70
2014,08,13,16,32,15.70
2014,08,13,16,33,15.70
2014,08,13,16,34,15.70
2014,08,13,16,35,15.70
2014,08,13,16,36,15.70
2014,08,13,16,37,15.70
2014,08,13,16,38,15.80
2014,08,13,16,39,15.80
2014,08,13,16,40,15.80
2014,08,13,16,41,15.80
2014,08,13,16,42,15.80
2014,08,13,16,43,15.80
2014,08,13,16,44,15.80
2014,08,13,16,45,15.80
2014,08,13,16,46,15.80
2014,08,13,16,47,15.80
2014,08,13,16,48,15.80
2014,08,13,16,49,15.80
2014,08,13,16,50,15.80
2014,08,13,16,51,15.80
2014,08,13,16,52,15.90
2014,08,13,16,53,15.90
2014,08,13,16,54,15.90
2014,08,13,16,55,15.90
2014,08,13,16,56,15.90
2014,08,13,16,57,15.90
2014,08,13,16,58,15.90
2014,08,13,16,59,15.90
2014,08,13,17,00,15.90
2014,08,13,17,01,16.00
2014,08,13,17,02,16.00
2014,08,13,17,03,16.00
2014,08,13,17,04,16.10
2014,08,13,17,05,16.10
2014,08,13,17,06,16.10
2014,08,13,17,07,16.10
2014,08,13,17,08,16.10
2014,08,13,17,09,16.10
2014,08,13,17,10,16.10
2014,08,13,17,11,16.10
2014,08,13,17,12,16.10
2014,08,13,17,13,16.10
2014,08,13,17,14,16.10
2014,08,13,17,15,16.10
2014,08,13,17,16,16.10
2014,08,13,17,17,16.10
2014,08,13,17,18,16.10
2014,08,13,17,19,16.10